Regional Weather Roundup
Issued by NWS

Home | Current Version | Previous Version | Text Only | Print | Product List | Glossary On
Versions: 1 2 3 4 5 6 7 8 9 10 11 12 13 14 15 16 17 18 19 20 21 22 23 24 25 26 27 28 29 30 31 32 33 34 35 36 37 38 39 40 41 42 43 44 45 46 47 48 49 50
000
ASCA42 TJSJ 170610
RWRPR
PUERTO RICO/U.S. VIRGIN ISLANDS HOURLY WEATHER ROUNDUP
NATIONAL WEATHER SERVICE SAN JUAN PR
200 AM AST TUE OCT 17 2017

PRZ001>002-007>008-010-170700-
PUERTO RICO

CITY           SKY/WX    TMP DP  RH WIND       PRES   REMARKS
SAN JUAN LMM   PTCLDY    79  79 100 S3        29.95F
PONCE          MOCLDY    79  73  83 VRB2      29.93F
AGUADILLA      CLEAR     79  73  83 E9        29.96F
$$

VIZ001>002-170700-
U.S. VIRGIN ISLANDS

CITY           SKY/WX    TMP DP  RH WIND       PRES   REMARKS
CHARLOTTE AMA    N/A     82  79  89 E17G25    29.95F HX  93
$$

HOURLY WEATHER ROUNDUP FOR THE NEWS MEDIA

CITY           SKY/WX    TMP DP  RH WIND       PRES   REMARKS
NEW YORK       CLEAR     46  32  58 NW12      30.24R
NEWARK         CLEAR     46  30  53 NW10      30.24R
CHICAGO        CLEAR     49  38  65 SW7       30.20S
HARTFORD       CLEAR     41  32  70 VRB5      30.15R
BOSTON         CLEAR     43  33  68 NW10      30.17S
DALLAS         CLEAR     55  45  68 CALM      30.28F
PHILADELPHIA   CLEAR     46  35  65 N3        30.28R
LOS ANGELES    CLEAR     72  55  55 CALM      30.01R
WASHINGTON DC  CLEAR     49  36  61 N10       30.27R


USA.gov is the U.S. government's official web portal to all federal, state and local government web resources and services.